Flag for U.S.A. Weather past 2 weeks in New Haven, Connecticut, U.S.A.

Now
45 °F

Partly sunny.


Feels Like: 40 °F
Forecast: 35 / 43 °F
Wind: 9 mph from Northwest

Location: Tweed-New Haven Airport

Current Time: Dec 18, 2014 at 2:04:13 PM

Latest Report: Dec 18, 2014 at 12:53 PM


Visibility: 10 mi

Pressure: 29.88 "Hg

Humidity: 48%

Dew point: 26 °F

Location of New HavenLocation

Historic Weather in New Haven — Graph

°F

New Haven temperature yesterday

Maximum temperature yesterday: 54 °F (at 12:53 PM)
Minimum temperature yesterday: 42 °F (at 12:53 AM)
Average temperature yesterday: 47 °F

Past Weeks' High & Low Weather Summary

 TemperatureHumidityPressure
High54 °F (Dec 17, 12:53 PM)89% (Dec 15, 3:04 AM)30.70 "Hg (Dec 15, 3:04 AM)
Low21 °F (Dec 8, 6:53 AM)25% (Dec 7, 2:53 PM)29.49 "Hg (Dec 10, 1:53 PM)
Average39 °F66%30.05 "Hg
* Reported Dec 3 12:53 PM — Dec 18 12:53 PM, New Haven, Weather by CustomWeather, © 2014

Note: Actual official high and low records may vary slightly from our data, if they occured in-between our weather recording intervals... More about our weather records

Advertising

New Haven weather history for previous 24 hours

 ConditionsComfort  
Time TempWeatherWind HumidityBarometerVisibility
12:53 PM
Dec 18
45 °FPartly sunny.9 mph48%29.88 "Hg10 mi
11:53 AM43 °FPartly sunny.10 mph49%29.90 "Hg10 mi
10:53 AM43 °FPartly sunny.13 mph49%29.92 "Hg10 mi
9:53 AM43 °FScattered clouds.9 mph51%29.92 "Hg10 mi
8:53 AM42 °FPassing clouds.9 mph55%29.90 "Hg10 mi
7:53 AM40 °FScattered clouds.8 mph58%29.90 "Hg10 mi
6:53 AM41 °FPassing clouds.8 mph55%29.88 "Hg10 mi
5:53 AM42 °FOvercast.7 mph57%29.86 "Hg10 mi
4:53 AM42 °FOvercast.8 mph60%29.85 "Hg10 mi
3:53 AM43 °FMostly cloudy.8 mph58%29.85 "Hg10 mi
2:53 AM44 °FOvercast.8 mph55%29.84 "Hg10 mi
1:53 AM44 °FOvercast.6 mph60%29.82 "Hg10 mi
12:53 AM44 °FOvercast.5 mph60%29.82 "Hg10 mi
11:53 PM
Dec 17
44 °FPassing clouds.5 mph60%29.83 "Hg10 mi
10:53 PM44 °FPassing clouds.3 mph65%29.83 "Hg10 mi
9:53 PM45 °FPassing clouds.3 mph65%29.84 "Hg10 mi
8:53 PM47 °FPassing clouds.9 mph61%29.84 "Hg10 mi
7:53 PM48 °FOvercast.7 mph61%29.83 "Hg10 mi
6:53 PM49 °FOvercast.9 mph59%29.83 "Hg10 mi
5:53 PM51 °FOvercast.10 mph56%29.81 "Hg10 mi
4:53 PM52 °FOvercast.8 mph61%29.79 "Hg10 mi
3:53 PM52 °FMostly cloudy.No wind66%29.78 "Hg10 mi
2:53 PM52 °FOvercast.7 mph64%29.77 "Hg10 mi
Weather by CustomWeather, © 2014

See weather overviewHow to use our weather pages